datetime,total release
1951-09-01,50.0
1951-09-02,50.0
1951-09-03,50.0
1951-09-04,50.0
1951-09-05,50.0
1951-09-06,129.0
1951-09-07,155.0
1951-09-08,50.0
1951-09-09,50.0
1951-09-10,53.0
1951-09-11,50.0
1951-09-12,50.0
1951-09-13,51.0
1951-09-14,50.0
1951-09-15,50.0
1951-09-16,50.0
1951-09-17,50.0
1951-09-18,50.0
1951-09-19,49.0
1951-09-20,299.0
1951-09-21,324.0
1951-09-22,299.0
1951-09-23,324.0
1951-09-24,266.0
1951-09-25,353.0
1951-09-26,351.0
1951-09-27,351.0
1951-09-28,269.0
1951-09-29,351.0
1951-09-30,49.0
1951-10-01,257.0
1951-10-02,263.0
1951-10-03,49.0
1951-10-04,49.0
1951-10-05,49.0
1951-10-06,49.0
1951-10-07,49.0
1951-10-08,49.0
1951-10-09,214.0
1951-10-10,159.0
1951-10-11,49.0
1951-10-12,214.0
1951-10-13,49.0
1951-10-14,49.0
1951-10-15,157.0
1951-10-16,49.0
1951-10-17,215.0
1951-10-18,219.0
1951-10-19,49.0
1951-10-20,49.0
1951-10-21,49.0
1951-10-22,49.0
1951-10-23,160.0
1951-10-24,189.0
1951-10-25,49.0
1951-10-26,50.0
1951-10-27,50.0
1951-10-28,50.0
1951-10-29,50.0
1951-10-30,250.0
1951-10-31,250.0
1951-11-01,417.0
1951-11-02,215.0
1951-11-03,50.0
1951-11-04,50.0
1951-11-05,53.0
1951-11-06,578.0
1951-11-07,358.0
1951-11-08,238.0
1951-11-09,73.0
1951-11-10,438.0
1951-11-11,53.0
1951-11-12,60.0
1951-11-13,94.0
1951-11-14,100.0
1951-11-15,197.0
1951-11-16,284.0
1951-11-17,233.0
1951-11-18,427.0
1951-11-19,435.0
1951-11-20,227.0
1951-11-21,242.0
1951-11-22,447.0
1951-11-23,444.0
1951-11-24,251.0
1951-11-25,196.0
1951-11-26,216.0
1951-11-27,237.0
1951-11-28,437.0
1951-11-29,254.0
1951-11-30,250.0
1951-12-01,258.0
1951-12-02,53.0
1951-12-03,65.0
1951-12-04,256.0
1951-12-05,246.0
1951-12-06,237.0
1951-12-07,251.0
1951-12-08,265.0
1951-12-09,48.0
1951-12-10,230.0
1951-12-11,249.0
1951-12-12,271.0
1951-12-13,395.0
1951-12-14,50.0
1951-12-15,48.0
1951-12-16,48.0
1951-12-17,67.0
1951-12-18,48.0
1951-12-19,200.0
1951-12-20,88.0
1951-12-21,59.0
1951-12-22,48.0
1951-12-23,48.0
1951-12-24,48.0
1951-12-25,48.0
1951-12-26,48.0
1951-12-27,237.0
1951-12-28,406.0
1951-12-29,436.0
1951-12-30,712.0
1951-12-31,188.0
1952-01-01,48.0
1952-01-02,98.0
1952-01-03,48.0
1952-01-04,263.0
1952-01-05,48.0
1952-01-06,48.0
1952-01-07,243.0
1952-01-08,243.0
1952-01-09,398.0
1952-01-10,250.0
1952-01-11,250.0
1952-01-12,243.0
1952-01-13,449.0
1952-01-14,48.0
1952-01-15,255.0
1952-01-16,255.0
1952-01-17,390.0
1952-01-18,48.0
1952-01-19,1014.0
1952-01-20,509.0
1952-01-21,481.0
1952-01-22,631.0
1952-01-23,569.0
1952-01-24,474.0
1952-01-25,493.0
1952-01-26,618.0
1952-01-27,375.0
1952-01-28,275.0
1952-01-29,476.0
1952-01-30,866.0
1952-01-31,677.0
1952-02-01,322.0
1952-02-02,331.0
1952-02-03,694.0
1952-02-04,623.0
1952-02-05,612.0
1952-02-06,505.0
1952-02-07,755.0
1952-02-08,573.0
1952-02-09,494.0
1952-02-10,646.0
1952-02-11,360.0
1952-02-12,696.0
1952-02-13,522.0
1952-02-14,479.0
1952-02-15,49.0
1952-02-16,49.0
1952-02-17,49.0
1952-02-18,49.0
1952-02-19,261.0
1952-02-20,250.0
1952-02-21,239.0
1952-02-22,49.0
1952-02-23,49.0
1952-02-24,49.0
1952-02-25,236.0
1952-02-26,49.0
1952-02-27,49.0
1952-02-28,49.0
1952-02-29,49.0
1952-03-01,49.0
1952-03-02,49.0
1952-03-03,49.0
1952-03-04,49.0
1952-03-05,49.0
1952-03-06,49.0
1952-03-07,49.0
1952-03-08,49.0
1952-03-09,49.0
1952-03-10,49.0
1952-03-11,49.0
1952-03-12,101.0
1952-03-13,49.0
1952-03-14,49.0
1952-03-15,49.0
1952-03-16,49.0
1952-03-17,202.0
1952-03-18,208.0
1952-03-19,215.0
1952-03-20,49.0
1952-03-21,218.0
1952-03-22,49.0
1952-03-23,49.0
1952-03-24,189.0
1952-03-25,49.0
1952-03-26,48.0
1952-03-27,48.0
1952-03-28,200.0
1952-03-29,48.0
1952-03-30,48.0
1952-03-31,48.0
1952-04-01,228.0
1952-04-02,49.0
1952-04-03,49.0
1952-04-04,49.0
1952-04-05,49.0
1952-04-06,49.0
1952-04-07,49.0
1952-04-08,49.0
1952-04-09,324.0
1952-04-10,49.0
1952-04-11,205.0
1952-04-12,212.0
1952-04-13,49.0
1952-04-14,48.0
1952-04-15,182.0
1952-04-16,288.0
1952-04-17,464.0
1952-04-18,101.0
1952-04-19,48.0
1952-04-20,48.0
1952-04-21,48.0
1952-04-22,48.0
1952-04-23,48.0
1952-04-24,48.0
1952-04-25,48.0
1952-04-26,48.0
1952-04-27,48.0
1952-04-28,48.0
1952-04-29,48.0
1952-04-30,48.0
1952-05-01,119.0
1952-05-02,157.0
1952-05-03,157.0
1952-05-04,157.0
1952-05-05,157.0
1952-05-06,157.0
1952-05-07,157.0
1952-05-08,157.0
1952-05-09,157.0
1952-05-10,157.0
1952-05-11,157.0
1952-05-12,157.0
1952-05-13,157.0
1952-05-14,167.0
1952-05-15,157.0
1952-05-16,158.0
1952-05-17,158.0
1952-05-18,158.0
1952-05-19,158.0
1952-05-20,158.0
1952-05-21,158.0
1952-05-22,158.0
1952-05-23,158.0
1952-05-24,158.0
1952-05-25,158.0
1952-05-26,159.0
1952-05-27,159.0
1952-05-28,159.0
1952-05-29,159.0
1952-05-30,159.0
1952-05-31,159.0
1952-06-01,159.0
1952-06-02,159.0
1952-06-03,159.0
1952-06-04,158.0
1952-06-05,158.0
1952-06-06,158.0
1952-06-07,158.0
1952-06-08,158.0
1952-06-09,162.0
1952-06-10,162.0
1952-06-11,162.0
1952-06-12,162.0
1952-06-13,162.0
1952-06-14,162.0
1952-06-15,162.0
1952-06-16,325.0
1952-06-17,594.0
1952-06-18,685.0
1952-06-19,747.0
1952-06-20,727.0
1952-06-21,846.0
1952-06-22,846.0
1952-06-23,846.0
1952-06-24,847.0
1952-06-25,848.0
1952-06-26,848.0
1952-06-27,852.0
1952-06-28,852.0
1952-06-29,852.0
1952-06-30,722.0
1952-07-01,383.0
1952-07-02,166.0
1952-07-03,166.0
1952-07-04,168.0
1952-07-05,168.0
1952-07-06,168.0
1952-07-07,168.0
1952-07-08,169.0
1952-07-09,169.0
1952-07-10,169.0
1952-07-11,169.0
1952-07-12,169.0
1952-07-13,169.0
1952-07-14,169.0
1952-07-15,169.0
1952-07-16,169.0
1952-07-17,169.0
1952-07-18,169.0
1952-07-19,169.0
1952-07-20,169.0
1952-07-21,169.0
1952-07-22,169.0
1952-07-23,169.0
1952-07-24,169.0
1952-07-25,206.0
1952-07-26,169.0
1952-07-27,169.0
1952-07-28,178.0
1952-07-29,169.0
1952-07-30,169.0
1952-07-31,169.0
1952-08-01,65.0
1952-08-02,50.0
1952-08-03,50.0
1952-08-04,50.0
1952-08-05,55.0
1952-08-06,263.0
1952-08-07,271.0
1952-08-08,50.0
1952-08-09,261.0
1952-08-10,168.0
1952-08-11,50.0
1952-08-12,50.0
1952-08-13,105.0
1952-08-14,98.0
1952-08-15,61.0
1952-08-16,65.0
1952-08-17,51.0
1952-08-18,112.0
1952-08-19,183.0
1952-08-20,308.0
1952-08-21,260.0
1952-08-22,318.0
1952-08-23,316.0
1952-08-24,315.0
1952-08-25,426.0
1952-08-26,447.0
1952-08-27,447.0
1952-08-28,482.0
1952-08-29,587.0
1952-08-30,120.0
1952-08-31,178.0
1952-09-01,179.0
1952-09-02,108.0
1952-09-03,113.0
1952-09-04,120.0
1952-09-05,111.0
1952-09-06,111.0
1952-09-07,111.0
1952-09-08,111.0
1952-09-09,111.0
1952-09-10,111.0
1952-09-11,111.0
1952-09-12,210.0
1952-09-13,195.0
1952-09-14,111.0
1952-09-15,111.0
1952-09-16,73.0
1952-09-17,69.0
1952-09-18,115.0
1952-09-19,115.0
1952-09-20,115.0
1952-09-21,115.0
1952-09-22,103.0
1952-09-23,111.0
1952-09-24,111.0
1952-09-25,193.0
1952-09-26,192.0
1952-09-27,192.0
1952-09-28,191.0
1952-09-29,191.0
1952-09-30,289.0
1952-10-01,384.0
1952-10-02,383.0
1952-10-03,303.0
1952-10-04,205.0
1952-10-05,111.0
1952-10-06,111.0
1952-10-07,111.0
1952-10-08,111.0
1952-10-09,111.0
1952-10-10,111.0
1952-10-11,111.0
1952-10-12,111.0
1952-10-13,148.0
1952-10-14,111.0
1952-10-15,111.0
1952-10-16,111.0
1952-10-17,111.0
1952-10-18,111.0
1952-10-19,111.0
1952-10-20,111.0
1952-10-21,111.0
1952-10-22,111.0
1952-10-23,166.0
1952-10-24,112.0
1952-10-25,112.0
1952-10-26,112.0
1952-10-27,140.0
1952-10-28,213.0
1952-10-29,258.0
1952-10-30,501.0
1952-10-31,455.0
1952-11-01,407.0
1952-11-02,150.0
1952-11-03,32.0
1952-11-04,40.0
1952-11-05,32.0
1952-11-06,32.0
1952-11-07,32.0
1952-11-08,32.0
1952-11-09,32.0
1952-11-10,32.0
1952-11-11,32.0
1952-11-12,32.0
1952-11-13,32.0
1952-11-14,32.0
1952-11-15,32.0
1952-11-16,32.0
1952-11-17,32.0
1952-11-18,31.0
1952-11-19,31.0
1952-11-20,50.0
1952-11-21,338.0
1952-11-22,530.0
1952-11-23,471.0
1952-11-24,471.0
1952-11-25,262.0
1952-11-26,567.0
1952-11-27,314.0
1952-11-28,299.0
1952-11-29,418.0
1952-11-30,470.0
1952-12-01,470.0
1952-12-02,417.0
1952-12-03,470.0
1952-12-04,405.0
1952-12-05,329.0
1952-12-06,472.0
1952-12-07,364.0
1952-12-08,363.0
1952-12-09,416.0
1952-12-10,336.0
1952-12-11,337.0
1952-12-12,388.0
1952-12-13,335.0
1952-12-14,336.0
1952-12-15,352.0
1952-12-16,395.0
1952-12-17,372.0
1952-12-18,354.0
1952-12-19,410.0
1952-12-20,353.0
1952-12-21,384.0
1952-12-22,424.0
1952-12-23,421.0
1952-12-24,430.0
1952-12-25,384.0
1952-12-26,353.0
1952-12-27,377.0
1952-12-28,414.0
1952-12-29,361.0
1952-12-30,365.0
1952-12-31,419.0
1953-01-01,380.0
1953-01-02,380.0
1953-01-03,395.0
1953-01-04,382.0
1953-01-05,349.0
1953-01-06,403.0
1953-01-07,381.0
1953-01-08,315.0
1953-01-09,277.0
1953-01-10,381.0
1953-01-11,382.0
1953-01-12,382.0
1953-01-13,381.0
1953-01-14,382.0
1953-01-15,382.0
1953-01-16,381.0
1953-01-17,381.0
1953-01-18,380.0
1953-01-19,381.0
1953-01-20,381.0
1953-01-21,380.0
1953-01-22,381.0
1953-01-23,381.0
1953-01-24,381.0
1953-01-25,382.0
1953-01-26,381.0
1953-01-27,383.0
1953-01-28,382.0
1953-01-29,382.0
1953-01-30,366.0
1953-01-31,30.0
1953-02-01,30.0
1953-02-02,335.0
1953-02-03,504.0
1953-02-04,281.0
1953-02-05,371.0
1953-02-06,281.0
1953-02-07,315.0
1953-02-08,287.0
1953-02-09,286.0
1953-02-10,411.0
1953-02-11,295.0
1953-02-12,383.0
1953-02-13,376.0
1953-02-14,282.0
1953-02-15,268.0
1953-02-16,361.0
1953-02-17,326.0
1953-02-18,135.0
1953-02-19,357.0
1953-02-20,380.0
1953-02-21,340.0
1953-02-22,225.0
1953-02-23,288.0
1953-02-24,380.0
1953-02-25,335.0
1953-02-26,342.0
1953-02-27,336.0
1953-02-28,335.0
1953-03-01,320.0
1953-03-02,335.0
1953-03-03,287.0
1953-03-04,158.0
1953-03-05,247.0
1953-03-06,193.0
1953-03-07,288.0
1953-03-08,231.0
1953-03-09,215.0
1953-03-10,172.0
1953-03-11,255.0
1953-03-12,189.0
1953-03-13,185.0
1953-03-14,29.0
1953-03-15,29.0
1953-03-16,173.0
1953-03-17,172.0
1953-03-18,171.0
1953-03-19,95.0
1953-03-20,101.0
1953-03-21,29.0
1953-03-22,29.0
1953-03-23,168.0
1953-03-24,136.0
1953-03-25,236.0
1953-03-26,97.0
1953-03-27,207.0
1953-03-28,28.0
1953-03-29,28.0
1953-03-30,111.0
1953-03-31,99.0
1953-04-01,28.0
1953-04-02,28.0
1953-04-03,28.0
1953-04-04,247.0
1953-04-05,28.0
1953-04-06,151.0
1953-04-07,228.0
1953-04-08,167.0
1953-04-09,175.0
1953-04-10,203.0
1953-04-11,46.0
1953-04-12,28.0
1953-04-13,211.0
1953-04-14,242.0
1953-04-15,28.0
1953-04-16,28.0
1953-04-17,316.0
1953-04-18,128.0
1953-04-19,28.0
1953-04-20,28.0
1953-04-21,28.0
1953-04-22,46.0
1953-04-23,28.0
1953-04-24,28.0
1953-04-25,28.0
1953-04-26,28.0
1953-04-27,28.0
1953-04-28,28.0
1953-04-29,28.0
1953-04-30,28.0
1953-05-01,63.0
1953-05-02,83.0
1953-05-03,83.0
1953-05-04,83.0
1953-05-05,83.0
1953-05-06,83.0
1953-05-07,83.0
1953-05-08,83.0
1953-05-09,83.0
1953-05-10,83.0
1953-05-11,83.0
1953-05-12,83.0
1953-05-13,83.0
1953-05-14,83.0
1953-05-15,83.0
1953-05-16,83.0
1953-05-17,83.0
1953-05-18,83.0
1953-05-19,83.0
1953-05-20,110.0
1953-05-21,83.0
1953-05-22,83.0
1953-05-23,83.0
1953-05-24,83.0
1953-05-25,83.0
1953-05-26,82.0
1953-05-27,82.0
1953-05-28,82.0
1953-05-29,82.0
1953-05-30,82.0
1953-05-31,82.0
1953-06-01,82.0
1953-06-02,82.0
1953-06-03,82.0
1953-06-04,82.0
1953-06-05,82.0
1953-06-06,82.0
1953-06-07,82.0
1953-06-08,82.0
1953-06-09,82.0
1953-06-10,82.0
1953-06-11,82.0
1953-06-12,82.0
1953-06-13,82.0
1953-06-14,82.0
1953-06-15,84.0
1953-06-16,84.0
1953-06-17,84.0
1953-06-18,84.0
1953-06-19,84.0
1953-06-20,84.0
1953-06-21,84.0
1953-06-22,84.0
1953-06-23,84.0
1953-06-24,84.0
1953-06-25,124.0
1953-06-26,84.0
1953-06-27,84.0
1953-06-28,84.0
1953-06-29,85.0
1953-06-30,85.0
1953-07-01,85.0
1953-07-02,85.0
1953-07-03,359.0
1953-07-04,453.0
1953-07-05,460.0
1953-07-06,464.0
1953-07-07,533.0
1953-07-08,614.0
1953-07-09,533.0
1953-07-10,439.0
1953-07-11,213.0
1953-07-12,336.0
1953-07-13,392.0
1953-07-14,534.0
1953-07-15,492.0
1953-07-16,569.0
1953-07-17,578.0
1953-07-18,413.0
1953-07-19,439.0
1953-07-20,494.0
1953-07-21,543.0
1953-07-22,467.0
1953-07-23,476.0
1953-07-24,422.0
1953-07-25,560.0
1953-07-26,439.0
1953-07-27,473.0
1953-07-28,499.0
1953-07-29,451.0
1953-07-30,409.0
1953-07-31,442.0
1953-08-01,326.0
1953-08-02,175.0
1953-08-03,58.0
1953-08-04,272.0
1953-08-05,267.0
1953-08-06,333.0
1953-08-07,284.0
1953-08-08,206.0
1953-08-09,272.0
1953-08-10,308.0
1953-08-11,363.0
1953-08-12,348.0
1953-08-13,362.0
1953-08-14,378.0
1953-08-15,287.0
1953-08-16,331.0
1953-08-17,262.0
1953-08-18,341.0
1953-08-19,303.0
1953-08-20,308.0
1953-08-21,437.0
1953-08-22,432.0
1953-08-23,492.0
1953-08-24,391.0
1953-08-25,487.0
1953-08-26,507.0
1953-08-27,477.0
1953-08-28,507.0
1953-08-29,507.0
1953-08-30,480.0
1953-08-31,331.0
1953-09-01,392.0
1953-09-02,385.0
1953-09-03,385.0
1953-09-04,413.0
1953-09-05,334.0
1953-09-06,325.0
1953-09-07,339.0
1953-09-08,320.0
1953-09-09,384.0
1953-09-10,384.0
1953-09-11,384.0
1953-09-12,339.0
1953-09-13,287.0
1953-09-14,384.0
1953-09-15,384.0
1953-09-16,384.0
1953-09-17,384.0
1953-09-18,384.0
1953-09-19,384.0
1953-09-20,287.0
1953-09-21,280.0
1953-09-22,455.0
1953-09-23,384.0
1953-09-24,384.0
1953-09-25,347.0
1953-09-26,341.0
1953-09-27,340.0
1953-09-28,348.0
1953-09-29,392.0
1953-09-30,383.0
1953-10-01,382.0
1953-10-02,317.0
1953-10-03,308.0
1953-10-04,264.0
1953-10-05,293.0
1953-10-06,298.0
1953-10-07,290.0
1953-10-08,229.0
1953-10-09,229.0
1953-10-10,315.0
1953-10-11,213.0
1953-10-12,172.0
1953-10-13,221.0
1953-10-14,334.0
1953-10-15,236.0
1953-10-16,232.0
1953-10-17,324.0
1953-10-18,274.0
1953-10-19,275.0
1953-10-20,275.0
1953-10-21,301.0
1953-10-22,266.0
1953-10-23,303.0
1953-10-24,290.0
1953-10-25,278.0
1953-10-26,173.0
1953-10-27,299.0
1953-10-28,299.0
1953-10-29,286.0
1953-10-30,311.0
1953-10-31,377.0
1953-11-01,382.0
1953-11-02,152.0
1953-11-03,274.0
1953-11-04,419.0
1953-11-05,358.0
1953-11-06,357.0
1953-11-07,278.0
1953-11-08,494.0
1953-11-09,343.0
1953-11-10,395.0
1953-11-11,476.0
1953-11-12,402.0
1953-11-13,336.0
1953-11-14,411.0
1953-11-15,420.0
1953-11-16,39.0
1953-11-17,29.0
1953-11-18,232.0
1953-11-19,286.0
1953-11-20,471.0
1953-11-21,385.0
1953-11-22,414.0
1953-11-23,349.0
1953-11-24,350.0
1953-11-25,350.0
1953-11-26,381.0
1953-11-27,424.0
1953-11-28,388.0
1953-11-29,306.0
1953-11-30,349.0
1953-12-01,390.0
1953-12-02,348.0
1953-12-03,351.0
1953-12-04,388.0
1953-12-05,344.0
1953-12-06,380.0
1953-12-07,350.0
1953-12-08,374.0
1953-12-09,347.0
1953-12-10,389.0
1953-12-11,346.0
1953-12-12,389.0
1953-12-13,375.0
1953-12-14,390.0
1953-12-15,386.0
1953-12-16,438.0
1953-12-17,424.0
1953-12-18,438.0
1953-12-19,250.0
1953-12-20,28.0
1953-12-21,218.0
1953-12-22,384.0
1953-12-23,655.0
1953-12-24,600.0
1953-12-25,500.0
1953-12-26,498.0
1953-12-27,442.0
1953-12-28,365.0
1953-12-29,379.0
1953-12-30,611.0
1953-12-31,494.0
1954-01-01,392.0
1954-01-02,339.0
1954-01-03,414.0
1954-01-04,374.0
1954-01-05,470.0
1954-01-06,513.0
1954-01-07,243.0
1954-01-08,273.0
1954-01-09,178.0
1954-01-10,98.0
1954-01-11,183.0
1954-01-12,285.0
1954-01-13,289.0
1954-01-14,347.0
1954-01-15,347.0
1954-01-16,433.0
1954-01-17,251.0
1954-01-18,158.0
1954-01-19,177.0
1954-01-20,142.0
1954-01-21,251.0
1954-01-22,168.0
1954-01-23,187.0
1954-01-24,27.0
1954-01-25,203.0
1954-01-26,489.0
1954-01-27,290.0
1954-01-28,275.0
1954-01-29,282.0
1954-01-30,216.0
1954-01-31,28.0
1954-02-01,351.0
1954-02-02,388.0
1954-02-03,422.0
1954-02-04,507.0
1954-02-05,373.0
1954-02-06,50.0
1954-02-07,28.0
1954-02-08,181.0
1954-02-09,183.0
1954-02-10,361.0
1954-02-11,494.0
1954-02-12,318.0
1954-02-13,320.0
1954-02-14,269.0
1954-02-15,234.0
1954-02-16,257.0
1954-02-17,231.0
1954-02-18,266.0
1954-02-19,377.0
1954-02-20,529.0
1954-02-21,376.0
1954-02-22,473.0
1954-02-23,504.0
1954-02-24,446.0
1954-02-25,500.0
1954-02-26,407.0
1954-02-27,509.0
1954-02-28,517.0
1954-03-01,447.0
1954-03-02,439.0
1954-03-03,499.0
1954-03-04,547.0
1954-03-05,439.0
1954-03-06,508.0
1954-03-07,487.0
1954-03-08,514.0
1954-03-09,518.0
1954-03-10,449.0
1954-03-11,456.0
1954-03-12,466.0
1954-03-13,523.0
1954-03-14,434.0
1954-03-15,393.0
1954-03-16,586.0
1954-03-17,493.0
1954-03-18,491.0
1954-03-19,434.0
1954-03-20,508.0
1954-03-21,374.0
1954-03-22,423.0
1954-03-23,460.0
1954-03-24,462.0
1954-03-25,497.0
1954-03-26,471.0
1954-03-27,462.0
1954-03-28,463.0
1954-03-29,480.0
1954-03-30,382.0
1954-03-31,296.0
1954-04-01,410.0
1954-04-02,599.0
1954-04-03,354.0
1954-04-04,355.0
1954-04-05,357.0
1954-04-06,26.0
1954-04-07,268.0
1954-04-08,574.0
1954-04-09,495.0
1954-04-10,492.0
1954-04-11,481.0
1954-04-12,495.0
1954-04-13,467.0
1954-04-14,392.0
1954-04-15,445.0
1954-04-16,457.0
1954-04-17,329.0
1954-04-18,332.0
1954-04-19,279.0
1954-04-20,87.0
1954-04-21,443.0
1954-04-22,407.0
1954-04-23,425.0
1954-04-24,428.0
1954-04-25,320.0
1954-04-26,211.0
1954-04-27,344.0
1954-04-28,340.0
1954-04-29,317.0
1954-04-30,282.0
1954-05-01,282.0
1954-05-02,469.0
1954-05-03,499.0
1954-05-04,467.0
1954-05-05,442.0
1954-05-06,426.0
1954-05-07,275.0
1954-05-08,357.0
1954-05-09,336.0
1954-05-10,258.0
1954-05-11,80.0
1954-05-12,80.0
1954-05-13,80.0
1954-05-14,80.0
1954-05-15,80.0
1954-05-16,187.0
1954-05-17,193.0
1954-05-18,80.0
1954-05-19,80.0
1954-05-20,80.0
1954-05-21,91.0
1954-05-22,80.0
1954-05-23,80.0
1954-05-24,80.0
1954-05-25,80.0
1954-05-26,80.0
1954-05-27,80.0
1954-05-28,420.0
1954-05-29,428.0
1954-05-30,306.0
1954-05-31,424.0
1954-06-01,428.0
1954-06-02,428.0
1954-06-03,428.0
1954-06-04,615.0
1954-06-05,464.0
1954-06-06,167.0
1954-06-07,410.0
1954-06-08,413.0
1954-06-09,468.0
1954-06-10,580.0
1954-06-11,520.0
1954-06-12,537.0
1954-06-13,485.0
1954-06-14,297.0
1954-06-15,346.0
1954-06-16,448.0
1954-06-17,453.0
1954-06-18,311.0
1954-06-19,217.0
1954-06-20,216.0
1954-06-21,299.0
1954-06-22,362.0
1954-06-23,335.0
1954-06-24,325.0
1954-06-25,250.0
1954-06-26,403.0
1954-06-27,522.0
1954-06-28,286.0
1954-06-29,367.0
1954-06-30,495.0
1954-07-01,413.0
1954-07-02,611.0
1954-07-03,590.0
1954-07-04,634.0
1954-07-05,363.0
1954-07-06,383.0
1954-07-07,543.0
1954-07-08,662.0
1954-07-09,628.0
1954-07-10,511.0
1954-07-11,597.0
1954-07-12,543.0
1954-07-13,603.0
1954-07-14,739.0
1954-07-15,510.0
1954-07-16,540.0
1954-07-17,586.0
1954-07-18,627.0
1954-07-19,551.0
1954-07-20,633.0
1954-07-21,457.0
1954-07-22,452.0
1954-07-23,739.0
1954-07-24,716.0
1954-07-25,564.0
1954-07-26,496.0
1954-07-27,614.0
1954-07-28,686.0
1954-07-29,626.0
1954-07-30,568.0
1954-07-31,835.0
1954-08-01,596.0
1954-08-02,598.0
1954-08-03,613.0
1954-08-04,631.0
1954-08-05,607.0
1954-08-06,619.0
1954-08-07,592.0
1954-08-08,680.0
1954-08-09,566.0
1954-08-10,529.0
1954-08-11,568.0
1954-08-12,609.0
1954-08-13,583.0
1954-08-14,591.0
1954-08-15,729.0
1954-08-16,605.0
1954-08-17,637.0
1954-08-18,629.0
1954-08-19,578.0
1954-08-20,640.0
1954-08-21,682.0
1954-08-22,758.0
1954-08-23,495.0
1954-08-24,598.0
1954-08-25,668.0
1954-08-26,704.0
1954-08-27,751.0
1954-08-28,792.0
1954-08-29,762.0
1954-08-30,615.0
1954-08-31,598.0
1954-09-01,546.0
1954-09-02,653.0
1954-09-03,630.0
1954-09-04,828.0
1954-09-05,627.0
1954-09-06,451.0
1954-09-07,575.0
1954-09-08,540.0
1954-09-09,541.0
1954-09-10,553.0
1954-09-11,627.0
1954-09-12,670.0
1954-09-13,468.0
1954-09-14,550.0
1954-09-15,349.0
1954-09-16,359.0
1954-09-17,246.0
1954-09-18,368.0
1954-09-19,380.0
1954-09-20,277.0
1954-09-21,325.0
1954-09-22,276.0
1954-09-23,390.0
1954-09-24,578.0
1954-09-25,514.0
1954-09-26,522.0
1954-09-27,395.0
1954-09-28,291.0
1954-09-29,251.0
1954-09-30,268.0
1954-10-01,428.0
1954-10-02,492.0
1954-10-03,346.0
1954-10-04,156.0
1954-10-05,366.0
1954-10-06,156.0
1954-10-07,335.0
1954-10-08,358.0
1954-10-09,454.0
1954-10-10,441.0
1954-10-11,408.0
1954-10-12,195.0
1954-10-13,215.0
1954-10-14,515.0
1954-10-15,407.0
1954-10-16,422.0
1954-10-17,690.0
1954-10-18,295.0
1954-10-19,363.0
1954-10-20,368.0
1954-10-21,402.0
1954-10-22,445.0
1954-10-23,451.0
1954-10-24,595.0
1954-10-25,442.0
1954-10-26,449.0
1954-10-27,404.0
1954-10-28,499.0
1954-10-29,266.0
1954-10-30,428.0
1954-10-31,490.0
1954-11-01,457.0
1954-11-02,343.0
1954-11-03,287.0
1954-11-04,290.0
1954-11-05,272.0
1954-11-06,600.0
1954-11-07,559.0
1954-11-08,539.0
1954-11-09,475.0
1954-11-10,471.0
1954-11-11,598.0
1954-11-12,284.0
1954-11-13,483.0
1954-11-14,637.0
1954-11-15,504.0
1954-11-16,526.0
1954-11-17,474.0
1954-11-18,483.0
1954-11-19,438.0
1954-11-20,588.0
1954-11-21,683.0
1954-11-22,402.0
1954-11-23,510.0
1954-11-24,446.0
1954-11-25,490.0
1954-11-26,419.0
1954-11-27,567.0
1954-11-28,440.0
1954-11-29,415.0
1954-11-30,464.0
1954-12-01,466.0
1954-12-02,485.0
1954-12-03,347.0
1954-12-04,593.0
1954-12-05,477.0
1954-12-06,276.0
1954-12-07,400.0
1954-12-08,440.0
1954-12-09,424.0
1954-12-10,353.0
1954-12-11,494.0
1954-12-12,635.0
1954-12-13,386.0
1954-12-14,349.0
1954-12-15,488.0
1954-12-16,484.0
1954-12-17,429.0
1954-12-18,426.0
1954-12-19,555.0
1954-12-20,530.0
1954-12-21,478.0
1954-12-22,487.0
1954-12-23,456.0
1954-12-24,512.0
1954-12-25,459.0
1954-12-26,359.0
1954-12-27,482.0
1954-12-28,472.0
1954-12-29,501.0
1954-12-30,589.0
1954-12-31,584.0
1955-01-01,369.0
1955-01-02,402.0
1955-01-03,434.0
1955-01-04,483.0
1955-01-05,492.0
1955-01-06,510.0
1955-01-07,454.0
1955-01-08,515.0
1955-01-09,423.0
1955-01-10,458.0
1955-01-11,522.0
1955-01-12,480.0
1955-01-13,470.0
1955-01-14,487.0
1955-01-15,458.0
1955-01-16,507.0
1955-01-17,450.0
1955-01-18,503.0
1955-01-19,542.0
1955-01-20,544.0
1955-01-21,514.0
1955-01-22,547.0
1955-01-23,432.0
1955-01-24,546.0
1955-01-25,491.0
1955-01-26,557.0
1955-01-27,498.0
1955-01-28,525.0
1955-01-29,464.0
1955-01-30,457.0
1955-01-31,491.0
1955-02-01,525.0
1955-02-02,484.0
1955-02-03,540.0
1955-02-04,474.0
1955-02-05,498.0
1955-02-06,388.0
1955-02-07,561.0
1955-02-08,622.0
1955-02-09,536.0
1955-02-10,528.0
1955-02-11,502.0
1955-02-12,456.0
1955-02-13,428.0
1955-02-14,602.0
1955-02-15,496.0
1955-02-16,529.0
1955-02-17,454.0
1955-02-18,473.0
1955-02-19,440.0
1955-02-20,525.0
1955-02-21,555.0
1955-02-22,511.0
1955-02-23,389.0
1955-02-24,520.0
1955-02-25,580.0
1955-02-26,502.0
1955-02-27,505.0
1955-02-28,450.0
1955-03-01,507.0
1955-03-02,391.0
1955-03-03,277.0
1955-03-04,512.0
1955-03-05,458.0
1955-03-06,457.0
1955-03-07,481.0
1955-03-08,485.0
1955-03-09,507.0
1955-03-10,514.0
1955-03-11,326.0
1955-03-12,215.0
1955-03-13,290.0
1955-03-14,571.0
1955-03-15,437.0
1955-03-16,465.0
1955-03-17,504.0
1955-03-18,532.0
1955-03-19,395.0
1955-03-20,356.0
1955-03-21,491.0
1955-03-22,508.0
1955-03-23,476.0
1955-03-24,432.0
1955-03-25,454.0
1955-03-26,347.0
1955-03-27,414.0
1955-03-28,531.0
1955-03-29,478.0
1955-03-30,424.0
1955-03-31,519.0
1955-04-01,373.0
1955-04-02,293.0
1955-04-03,105.0
1955-04-04,325.0
1955-04-05,430.0
1955-04-06,332.0
1955-04-07,387.0
1955-04-08,366.0
1955-04-09,241.0
1955-04-10,133.0
1955-04-11,245.0
1955-04-12,346.0
1955-04-13,359.0
1955-04-14,339.0
1955-04-15,276.0
1955-04-16,165.0
1955-04-17,161.0
1955-04-18,249.0
1955-04-19,301.0
1955-04-20,331.0
1955-04-21,220.0
1955-04-22,129.0
1955-04-23,120.0
1955-04-24,184.0
1955-04-25,199.0
1955-04-26,148.0
1955-04-27,123.0
1955-04-28,141.0
1955-04-29,125.0
1955-04-30,114.0
1955-05-01,58.0
1955-05-02,76.0
1955-05-03,76.0
1955-05-04,76.0
1955-05-05,76.0
1955-05-06,76.0
1955-05-07,76.0
1955-05-08,76.0
1955-05-09,104.0
1955-05-10,76.0
1955-05-11,76.0
1955-05-12,76.0
1955-05-13,76.0
1955-05-14,76.0
1955-05-15,76.0
1955-05-16,76.0
1955-05-17,76.0
1955-05-18,76.0
1955-05-19,76.0
1955-05-20,76.0
1955-05-21,76.0
1955-05-22,76.0
1955-05-23,76.0
1955-05-24,76.0
1955-05-25,83.0
1955-05-26,76.0
1955-05-27,76.0
1955-05-28,76.0
1955-05-29,76.0
1955-05-30,76.0
1955-05-31,76.0
1955-06-01,76.0
1955-06-02,76.0
1955-06-03,76.0
1955-06-04,76.0
1955-06-05,76.0
1955-06-06,76.0
1955-06-07,76.0
1955-06-08,76.0
1955-06-09,76.0
1955-06-10,76.0
1955-06-11,76.0
1955-06-12,76.0
1955-06-13,76.0
1955-06-14,76.0
1955-06-15,76.0
1955-06-16,76.0
1955-06-17,76.0
1955-06-18,76.0
1955-06-19,76.0
1955-06-20,76.0
1955-06-21,76.0
1955-06-22,76.0
1955-06-23,76.0
1955-06-24,76.0
1955-06-25,76.0
1955-06-26,76.0
1955-06-27,76.0
1955-06-28,76.0
1955-06-29,76.0
1955-06-30,76.0
1955-07-01,76.0
1955-07-02,76.0
1955-07-03,76.0
1955-07-04,76.0
1955-07-05,76.0
1955-07-06,134.0
1955-07-07,148.0
1955-07-08,272.0
1955-07-09,197.0
1955-07-10,245.0
1955-07-11,193.0
1955-07-12,321.0
1955-07-13,333.0
1955-07-14,372.0
1955-07-15,365.0
1955-07-16,505.0
1955-07-17,462.0
1955-07-18,250.0
1955-07-19,415.0
1955-07-20,481.0
1955-07-21,499.0
1955-07-22,346.0
1955-07-23,237.0
1955-07-24,236.0
1955-07-25,292.0
1955-07-26,317.0
1955-07-27,272.0
1955-07-28,311.0
1955-07-29,307.0
1955-07-30,425.0
1955-07-31,584.0